Mineral Wells, TX

9:53 AM CDT on June 27, 2017 (GMT -0500)
Mineral Wells

Weather History for KMWL - March, 2013

Change the Weather History Date:

Saturday, March 23, 2013

  Actual Average Record
Temperature  
Mean Temperature 50 °F -  
Max Temperature 55 °F 67 °F 86 °F (1998)
Min Temperature 44 °F 45 °F 32 °F (2006)
Degree Days  
Heating Degree Days 16    
Moisture  
Dew Point 46 °F    
Average Humidity 88    
Maximum Humidity 96    
Minimum Humidity 77    
Precipitation  
Precipitation 0.00 in - - ()
Sea Level Pressure  
Sea Level Pressure 29.76 in    
Wind  
Wind Speed 8 mph (NE)    
Max Wind Speed 23 mph    
Max Gust Speed 33 mph    
Visibility 7 miles    
Events Rain , Thunderstorm    
Averages and records for this station are not official NWS values.
T = Trace of Precipitation, MM = Missing Value Source: NWS Daily Summary

Daily Weather History Graph

Daily Weather History Graph

Search for Another Location

Airport or City:

Trip Planner

Search our weather history database for the weather conditions in past years. The results will help you decide how hot, cold, wet, or windy it might be!

Date:

Astronomy

Mar. 23, 2013 Rise Set
Actual Time 7:31 AM CDT 7:46 PM CDT
Civil Twilight 7:07 AM CDT 8:10 PM CDT
Nautical Twilight 6:38 AM CDT 8:39 PM CDT
Astronomical Twilight 6:09 AM CDT 9:08 PM CDT
Moon 4:24 PM CDT (3/23) 4:57 AM CDT (3/23)
Length of Visible Light 13h 03m
Length of Day
12h 14m
Waxing Gibbous, 85% of the Moon is Illuminated
Mar 23
Waxing Gibbous
Mar 27
Full
Apr 2
Last Quarter
Apr 10
New
Apr 18
First Quarter

Hourly Weather History & Observations

Time (CDT) Temp. Windchill Dew Point Humidity Pressure Visibility Wind Dir Wind Speed Gust Speed Precip Events Conditions
12:22 AM 46.4 °F 42.4 °F 42.8 °F 87% 29.82 in 9.0 mi East 8.1 mph - N/A   Overcast
12:29 AM 48.2 °F - 42.8 °F 82% 29.84 in 9.0 mi NE 3.5 mph - N/A   Overcast
12:53 AM 46.9 °F - 42.1 °F 83% 29.81 in 10.0 mi ENE 5.8 mph - N/A   Overcast
1:53 AM 46.4 °F 45.2 °F 42.8 °F 87% 29.83 in 10.0 mi East 3.5 mph - N/A   Overcast
2:53 AM 46.0 °F 41.0 °F 42.1 °F 86% 29.79 in 7.0 mi North 10.4 mph - N/A   Mostly Cloudy
3:11 AM 44.6 °F 39.7 °F 42.8 °F 93% 29.78 in 6.0 mi NNE 9.2 mph - N/A   Scattered Clouds
3:22 AM 44.6 °F 41.4 °F 42.8 °F 93% 29.78 in 5.0 mi NE 5.8 mph - N/A   Mostly Cloudy
3:38 AM 44.6 °F 42.2 °F 42.8 °F 93% 29.79 in 7.0 mi NNE 4.6 mph - N/A   Mostly Cloudy
3:53 AM 45.0 °F 41.8 °F 43.0 °F 93% 29.78 in 7.0 mi NE 5.8 mph - N/A   Overcast
4:53 AM 45.0 °F 40.6 °F 42.1 °F 90% 29.78 in 8.0 mi East 8.1 mph - N/A   Overcast
5:53 AM 45.0 °F 40.1 °F 43.0 °F 93% 29.76 in 6.0 mi SE 9.2 mph - 0.00 in   Overcast
6:23 AM 44.6 °F 39.7 °F 42.8 °F 93% 29.73 in 5.0 mi ESE 9.2 mph - N/A Thunderstorm Overcast
6:33 AM 44.6 °F 41.4 °F 42.8 °F 93% 29.81 in 5.0 mi SSW 5.8 mph - N/A Thunderstorm Overcast
1:53 PM 53.1 °F - 46.9 °F 80% 29.72 in 10.0 mi WNW 3.5 mph - N/A   Overcast
2:53 PM 55.0 °F - 48.0 °F 77% 29.70 in 10.0 mi Calm Calm - N/A   Overcast
3:53 PM 53.1 °F - 48.0 °F 83% 29.69 in 5.0 mi North 9.2 mph - N/A   Haze
4:53 PM 54.0 °F - 48.0 °F 80% 29.68 in 9.0 mi North 4.6 mph - N/A   Overcast
5:03 PM 53.6 °F - 48.2 °F 82% 29.69 in 10.0 mi NNE 5.8 mph - N/A   Overcast
5:53 PM 54.0 °F - 48.0 °F 80% 29.65 in 10.0 mi NE 6.9 mph - N/A   Overcast
6:53 PM 54.0 °F - 48.0 °F 80% 29.65 in 10.0 mi NE 4.6 mph - N/A   Overcast
7:53 PM 53.1 °F - 48.0 °F 83% 29.64 in 10.0 mi East 8.1 mph - N/A   Overcast
8:53 PM 51.1 °F - 48.0 °F 89% 29.65 in 6.0 mi East 8.1 mph - N/A   Overcast
9:53 PM 50.0 °F - 48.0 °F 93% 29.67 in 8.0 mi ENE 8.1 mph - N/A   Overcast
10:19 PM 51.8 °F - 48.2 °F 88% 29.81 in 4.0 mi NNW 15.0 mph - 0.00 in Rain Light Rain
10:26 PM 50.0 °F - 48.2 °F 94% 29.82 in 1.8 mi NNW 16.1 mph - 0.00 in Rain Light Rain
10:33 PM 50.0 °F - 48.2 °F 94% 29.81 in 2.0 mi North 16.1 mph - 0.00 in Rain Light Rain
10:41 PM 50.0 °F - 48.2 °F 94% 29.83 in 3.0 mi NNW 15.0 mph - 0.00 in Rain Light Rain
10:53 PM 50.0 °F - 48.9 °F 96% 29.82 in 3.0 mi NNW 13.8 mph - 0.00 in Rain Light Rain
11:19 PM 48.2 °F - 46.4 °F 93% 29.84 in 9.0 mi North 23.0 mph 31.1 mph 0.00 in   Overcast
11:53 PM 46.9 °F - 44.1 °F 90% 29.86 in 9.0 mi North 20.7 mph 33.4 mph 0.00 in   Overcast